[[{"header":{"parameterUnit":"m.s-1","parameterCategory":1,"la1":30.2991,"la2":30.254,"lo1":-89.0895,"lo2":-89.0444,"dy":0.0017,"dx":0.0017,"nx":28,"ny":28,"refTime":"2025-11-28T03:00:00:Z","depth":0,"parameterNumber":2,"parameterNumberName":"U-component_of_WINDS"},"data":[0,0,0,0,0,0,0,0,0,0,0,0,0,0,0,0,0,0,0,0,0,0,0,0,0,0,0,0,0,0,0,0,0,0,0,0,0,0,0,0,0,0,0,0,0,0,0,0,0,0,0,0,0,0,0,0,0,0,-4.2716,-4.2717,0,-4.2772,-4.2772,-4.2773,-4.2676,-4.2673,-4.267,-4.2666,-4.2723,-4.2728,-4.2732,0,0,0,0,0,0,0,0,0,0,0,0,0,-4.2525,-4.2529,-4.2716,-4.2717,-4.2717,-4.2771,-4.2772,-4.2773,-4.2677,-4.2673,-4.2669,-4.2665,-4.2722,-4.2727,-4.2733,0,0,0,0,0,0,0,0,0,0,0,0,0,-4.2597,-4.253,-4.2716,-4.2676,-4.2673,-4.2771,-4.2772,-4.2773,-4.2678,-4.2673,-4.2668,-4.2663,-4.272,-4.2727,-4.2733,-4.2873,0,0,-4.2754,-4.2757,0,0,0,0,0,0,0,0,-4.2593,-4.2604,-4.2681,-4.2679,-4.2675,-4.2712,-4.2726,-4.2807,-4.2679,-4.2676,-4.2666,-4.2661,-4.2723,-4.273,-4.2751,-4.2876,-4.2878,-4.2755,-4.2759,-4.2762,-4.2764,0,0,0,0,0,0,0,-4.2588,-4.2601,-4.2738,-4.2682,-4.2679,-4.2655,-4.2659,-4.2741,-4.2726,-4.2676,-4.2669,-4.2677,-4.2721,-4.2744,-4.2751,-4.2879,-4.2755,-4.2761,-4.2765,-4.2767,-4.3122,-4.3127,0,0,0,0,0,0,-4.2588,-4.2598,-4.2736,-4.2739,-4.2621,-4.2662,-4.2667,-4.2705,-4.2725,-4.2723,-4.2681,-4.2672,-4.2735,-4.2744,-4.2753,-4.2919,-4.2762,-4.2768,-4.2772,-4.3117,-4.3123,-4.3129,0,0,0,0,0,0,-4.2585,-4.2602,-4.2734,-4.2667,-4.2682,-4.2671,-4.2714,-4.2709,-4.2732,-4.2729,-4.2726,-4.2708,-4.2732,-4.2743,-4.2844,-4.2919,-4.2771,-4.2777,-4.311,-4.3119,-4.3126,-4.3251,0,0,0,0,0,0,-4.2579,-4.2601,-4.2654,-4.2669,-4.2686,-4.2825,-4.2718,-4.2713,-4.2744,-4.2733,-4.2753,-4.2752,-4.2729,-4.2835,-4.2851,-4.2926,-4.2783,-4.3104,-4.3114,-4.3123,-4.3241,-4.3263,-4.3282,0,0,0,0,0,-4.2573,-4.2687,-4.2658,-4.2675,-4.2752,-4.2829,-4.2839,-4.281,-4.2751,-4.2804,-4.2802,-4.2751,-4.2908,-4.2846,-4.2863,-4.2942,-4.3099,-4.3111,-4.3123,-4.3231,-4.3258,-4.3281,0,0,0,0,0,0,-4.2682,-4.2688,-4.2656,-4.2778,-4.2804,-4.2813,-4.288,-4.284,-4.2883,-4.2871,-4.2833,-4.2838,-4.2947,-4.2954,-4.2884,-4.3078,-4.2993,-4.301,-4.307,-4.3096,-4.3116,-4.3112,-4.2788,0,0,0,0,0,-4.272,-4.2783,-4.2784,-4.2892,-4.2907,-4.2892,-4.2924,-4.2899,-4.2924,-4.2935,-4.294,-4.2966,-4.3021,-4.3058,-4.3109,-4.324,-4.3243,-4.3303,-4.3323,-4.334,-4.3355,-4.3425,-4.3452,-4.3168,-4.3168,-4.3168,0,0,-4.28,-4.2811,-4.2853,-4.2915,-4.2932,-4.2997,-4.2901,-4.2974,-4.3022,-4.2946,-4.3042,-4.3046,-4.3073,-4.319,-4.3242,-4.3199,-4.3434,-4.3355,-4.3369,-4.3375,-4.344,-4.3467,-4.3491,-4.3176,-4.3175,-4.3174,0,0,-4.2979,-4.2994,-4.3085,-4.3105,-4.3132,-4.312,-4.3142,-4.3158,-4.3158,-4.3253,-4.3197,-4.3253,-4.3349,-4.337,-4.3394,-4.358,-4.3535,-4.3597,-4.3705,-4.3774,-4.3796,-4.3816,-4.3883,-4.3908,-4.3612,-4.3612,-4.3612,0,-4.3075,-4.3172,-4.3138,-4.3215,-4.3244,-4.3177,-4.3269,-4.3289,-4.3332,-4.3353,-4.3304,-4.3423,-4.3436,-4.3557,-4.3603,-4.3624,-4.3648,-4.3596,-4.3796,-4.3815,-4.3833,-4.3897,-4.3922,-4.3619,-4.3619,-4.3618,-4.3617,0,-4.3289,-4.3356,-4.3427,-4.347,-4.3506,-4.3591,-4.3569,-4.361,-4.3581,-4.3575,-4.3673,-4.3686,-4.3738,-4.3765,-4.3738,-4.3882,-4.3855,-4.3802,-4.3717,-4.3868,-4.3927,-4.3951,-4.363,-4.3627,-4.3625,-4.3623,0,0,-4.354,-4.3562,-4.3589,-4.3607,-4.3632,-4.3683,-4.3764,-4.3815,-4.3851,-4.3882,-4.3949,-4.4031,-4.3982,-4.4009,-4.3983,-4.4044,-4.4191,-4.3983,-4.3983,-4.4022,-4.4351,-4.4392,-4.4421,-4.4161,-4.4165,-4.4169,-4.435,0,-4.3718,-4.3859,-4.383,-4.3968,-4.403,-4.3967,-4.4037,-4.406,-4.4056,-4.4107,-4.4102,-4.4161,-4.4091,-4.4107,-4.4164,-4.4161,-4.4257,-4.4148,-4.4223,-4.4226,-4.422,-4.4452,-4.4495,-4.4665,-4.4372,-4.4376,-4.4379,0,-4.3946,-4.3986,-4.413,-4.4145,-4.417,-4.4234,-4.4278,-4.4328,-4.4352,-4.4344,-4.4374,-4.4337,-4.4417,-4.4329,-4.4439,-4.4365,-4.4394,-4.4397,-4.4403,-4.441,-4.4313,-4.4466,-4.4719,-4.4745,-4.4415,-4.4412,-4.441,0,-4.4117,-4.4206,-4.4304,-4.4321,-4.434,-4.4387,-4.4397,-4.4416,-4.4448,-4.4486,-4.4507,-4.4554,-4.458,-4.4617,-4.4594,-4.4532,-4.4708,-4.4618,-4.4704,-4.4705,-4.4745,-4.4743,-4.5007,-4.4762,-4.4762,-4.4761,-4.4761,0,-4.432,-4.4411,-4.438,-4.4441,-4.454,-4.4506,-4.4605,-4.4607,-4.4625,-4.4684,-4.4631,-4.4688,-4.4653,-4.4707,-4.4688,-4.4782,-4.4794,-4.479,-4.4785,-4.4796,-4.4797,-4.4816,-4.4804,-4.4768,-4.4766,-4.4765,-4.4764,0,-4.4528,-4.4511,-4.4613,-4.4623,-4.4627,-4.47,-4.4708,-4.4764,-4.4755,-4.4831,-4.4846,-4.4833,-4.4894,-4.4873,-4.4938,-4.4925,-4.5045,-4.5024,-4.5038,-4.5033,-4.512,-4.5113,-4.5407,-4.5444,-4.5174,-4.5176,-4.5179,0,-4.466,-4.4728,-4.4745,-4.4781,-4.4795,-4.4854,-4.4886,-4.4854,-4.489,-4.4922,-4.4975,-4.503,-4.5073,-4.5173,-4.5169,-4.5218,-4.5198,-4.5297,-4.5205,-4.5214,-4.52,-4.5197,-4.5204,-4.5316,-4.5319,-4.5322,-4.5324,0,-4.4896,-4.4884,-4.4933,-4.498,-4.5021,-4.5056,-4.5086,-4.5119,-4.5088,-4.5131,-4.5193,-4.5226,-4.5292,-4.5348,-4.5392,-4.5401,-4.5359,-4.5353,-4.5375,-4.5388,-4.5394,-4.5393,-4.5089,-4.5347,-4.5344,-4.5343,-4.5341,-4.534,-4.5071,-4.5128,-4.5149,-4.5206,-4.5225,-4.5255,-4.5308,-4.5305,-4.5356,-4.5408,-4.5385,-4.5456,-4.5477,-4.5532,-4.5547,-4.5602,-4.5563,-4.5596,-4.5605,-4.5614,-4.5625,-4.5384,-4.561,-4.5609,-4.5608,-4.5608,-4.5607,0,-4.5305,-4.5315,-4.5367,-4.5411,-4.5456,-4.5411,-4.5441,-4.5482,-4.5545,-4.5568,-4.5612,-4.5682,-4.5736,-4.5735,-4.5785,-4.5829,-4.5811,-4.5843,-4.5841,-4.5844,-4.5656,-4.5632,-4.5858,-4.5858,-4.5858,-4.5858,-4.5858,-4.5858,-4.5432,-4.5528,-4.5518,-4.5623,-4.5632,-4.5701,-4.5723,-4.5749,-4.5768,-4.5849,-4.5893,-4.5893,-4.5907,-4.5957,-4.6004,-4.6002,-4.6024,-4.6065,-4.6056,-4.5881,-4.5857,-4.5833,-4.581,-4.6069,-4.607,-4.6238,-4.624,-4.6241]},{"header":{"parameterUnit":"m.s-1","parameterCategory":1,"la1":30.2991,"la2":30.254,"lo1":-89.0895,"lo2":-89.0444,"dy":0.0017,"dx":0.0017,"nx":28,"ny":28,"refTime":"2025-11-28T03:00:00:Z","depth":0,"parameterNumber":3,"parameterNumberName":"V-component_of_WINDS"},"data":[0,0,0,0,0,0,0,0,0,0,0,0,0,0,0,0,0,0,0,0,0,0,0,0,0,0,0,0,0,0,0,0,0,0,0,0,0,0,0,0,0,0,0,0,0,0,0,0,0,0,0,0,0,0,0,0,0,0,-6.1075,-6.1076,0,-6.1138,-6.1139,-6.114,-6.1061,-6.1058,-6.1055,-6.1053,-6.1112,-6.1116,-6.1121,0,0,0,0,0,0,0,0,0,0,0,0,0,-6.0881,-6.0885,-6.1075,-6.1076,-6.1077,-6.1138,-6.1139,-6.114,-6.1062,-6.1058,-6.1055,-6.1051,-6.1111,-6.1116,-6.1121,0,0,0,0,0,0,0,0,0,0,0,0,0,-6.0957,-6.0886,-6.1075,-6.1045,-6.1043,-6.1138,-6.1139,-6.114,-6.1062,-6.1058,-6.1054,-6.105,-6.1109,-6.1115,-6.1122,-6.1247,0,0,-6.1141,-6.1144,0,0,0,0,0,0,0,0,-6.0952,-6.0964,-6.1049,-6.1047,-6.1045,-6.1088,-6.1092,-6.1176,-6.1063,-6.1055,-6.1053,-6.1048,-6.1107,-6.1113,-6.1135,-6.125,-6.1253,-6.1142,-6.1146,-6.1148,-6.115,0,0,0,0,0,0,0,-6.0947,-6.0961,-6.11,-6.105,-6.1048,-6.1027,-6.1033,-6.1108,-6.1104,-6.1055,-6.105,-6.1059,-6.1105,-6.1129,-6.1135,-6.1254,-6.1142,-6.1147,-6.1151,-6.1154,-6.1474,-6.1478,0,0,0,0,0,0,-6.0946,-6.0957,-6.1098,-6.1102,-6.0987,-6.1034,-6.104,-6.1078,-6.1103,-6.1103,-6.1062,-6.1055,-6.112,-6.1128,-6.1137,-6.1286,-6.1148,-6.1154,-6.1158,-6.1469,-6.1475,-6.148,0,0,0,0,0,0,-6.0942,-6.096,-6.1095,-6.1028,-6.1044,-6.1042,-6.1085,-6.1082,-6.1105,-6.1109,-6.1107,-6.1087,-6.1117,-6.1128,-6.1221,-6.1286,-6.1157,-6.1163,-6.1464,-6.1471,-6.1477,-6.1584,0,0,0,0,0,0,-6.0937,-6.0959,-6.1008,-6.103,-6.1048,-6.118,-6.1089,-6.1086,-6.1117,-6.1108,-6.1131,-6.1131,-6.1114,-6.1212,-6.1227,-6.1293,-6.1168,-6.1458,-6.1467,-6.1475,-6.1574,-6.1593,-6.161,0,0,0,0,0,-6.093,-6.1034,-6.1011,-6.1028,-6.1109,-6.1184,-6.1194,-6.1174,-6.1123,-6.1171,-6.1173,-6.113,-6.1277,-6.1222,-6.1238,-6.1307,-6.1454,-6.1464,-6.1475,-6.1566,-6.159,-6.1609,0,0,0,0,0,0,-6.1019,-6.1037,-6.1011,-6.1125,-6.1154,-6.1171,-6.1231,-6.1199,-6.1242,-6.1231,-6.1202,-6.1208,-6.1307,-6.1316,-6.1254,-6.1429,-6.1356,-6.1371,-6.142,-6.1443,-6.146,-6.1456,-6.1173,0,0,0,0,0,-6.1052,-6.1113,-6.1124,-6.1224,-6.124,-6.1233,-6.1265,-6.1247,-6.1275,-6.1286,-6.1295,-6.1322,-6.1374,-6.1408,-6.1456,-6.1575,-6.1578,-6.163,-6.1648,-6.1663,-6.1675,-6.1738,-6.1761,-6.1514,-6.1514,-6.1514,0,0,-6.112,-6.1137,-6.1177,-6.1242,-6.1262,-6.1324,-6.1244,-6.1313,-6.1358,-6.1296,-6.1384,-6.1392,-6.142,-6.1526,-6.1573,-6.1536,-6.1744,-6.1676,-6.1688,-6.1693,-6.1751,-6.1774,-6.1795,-6.1522,-6.152,-6.1519,0,0,-6.1277,-6.1296,-6.1382,-6.1404,-6.1435,-6.143,-6.1451,-6.1473,-6.1476,-6.1564,-6.1518,-6.157,-6.1661,-6.1683,-6.1705,-6.187,-6.1832,-6.1886,-6.1979,-6.204,-6.2059,-6.2076,-6.2135,-6.2156,-6.1898,-6.1899,-6.1899,0,-6.1357,-6.1451,-6.1429,-6.1502,-6.1531,-6.1479,-6.1564,-6.1585,-6.1631,-6.1651,-6.161,-6.1722,-6.1737,-6.1847,-6.1887,-6.1907,-6.1929,-6.1883,-6.2059,-6.2076,-6.2091,-6.2146,-6.2168,-6.1905,-6.1904,-6.1904,-6.1903,0,-6.1548,-6.1613,-6.1678,-6.1725,-6.1761,-6.184,-6.1828,-6.1867,-6.1845,-6.1844,-6.1934,-6.195,-6.2,-6.2025,-6.2004,-6.2132,-6.2108,-6.2064,-6.1989,-6.2121,-6.2173,-6.2194,-6.1914,-6.1912,-6.191,-6.1908,0,0,-6.1762,-6.1797,-6.1821,-6.1841,-6.1872,-6.1921,-6.1996,-6.2047,-6.2081,-6.2113,-6.2175,-6.2252,-6.2211,-6.2237,-6.2217,-6.2271,-6.24,-6.2219,-6.222,-6.2252,-6.2541,-6.2574,-6.2599,-6.2374,-6.2378,-6.2381,-6.2538,0,-6.1919,-6.2052,-6.2034,-6.216,-6.222,-6.217,-6.2235,-6.2261,-6.2261,-6.231,-6.2309,-6.2365,-6.2306,-6.2321,-6.2372,-6.2373,-6.2457,-6.2362,-6.243,-6.2433,-6.2425,-6.2626,-6.2662,-6.281,-6.2558,-6.2561,-6.2564,0,-6.212,-6.2162,-6.2295,-6.2317,-6.2341,-6.24,-6.2445,-6.2493,-6.2519,-6.2515,-6.2545,-6.2516,-6.2589,-6.2513,-6.2613,-6.2548,-6.2575,-6.2579,-6.2585,-6.259,-6.2507,-6.2637,-6.2856,-6.2878,-6.2595,-6.2593,-6.259,0,-6.2263,-6.2353,-6.2444,-6.2463,-6.249,-6.2533,-6.2546,-6.2568,-6.26,-6.2638,-6.2657,-6.2703,-6.2728,-6.2763,-6.2746,-6.2693,-6.2849,-6.2772,-6.2847,-6.2847,-6.2882,-6.288,-6.3108,-6.2899,-6.2899,-6.2898,-6.2898,0,-6.2441,-6.2524,-6.2508,-6.2565,-6.2656,-6.2633,-6.2723,-6.273,-6.275,-6.2805,-6.2764,-6.2816,-6.2791,-6.2841,-6.2827,-6.2912,-6.2923,-6.2921,-6.2917,-6.2925,-6.2925,-6.2942,-6.2932,-6.2904,-6.2903,-6.2902,-6.2901,0,-6.2616,-6.261,-6.2706,-6.2724,-6.273,-6.2797,-6.2811,-6.2862,-6.2859,-6.293,-6.2944,-6.2939,-6.2996,-6.2982,-6.3043,-6.3034,-6.314,-6.3123,-6.3132,-6.3128,-6.3204,-6.3197,-6.3451,-6.3483,-6.3253,-6.3255,-6.3257,0,-6.273,-6.2793,-6.2819,-6.2854,-6.287,-6.2927,-6.2959,-6.2938,-6.2973,-6.3008,-6.3055,-6.3108,-6.3149,-6.3241,-6.3241,-6.3287,-6.3271,-6.3357,-6.3277,-6.3284,-6.3272,-6.3269,-6.3275,-6.3372,-6.3375,-6.3377,-6.3379,0,-6.2933,-6.2926,-6.2975,-6.3024,-6.3064,-6.31,-6.3132,-6.3162,-6.3143,-6.3184,-6.3242,-6.3275,-6.3337,-6.339,-6.3433,-6.3443,-6.3408,-6.3404,-6.3424,-6.3433,-6.3436,-6.3435,-6.3175,-6.3398,-6.3396,-6.3395,-6.3394,-6.3393,-6.3081,-6.3135,-6.3161,-6.3217,-6.3239,-6.327,-6.3319,-6.3323,-6.3372,-6.3423,-6.3406,-6.3472,-6.3495,-6.3549,-6.3565,-6.3615,-6.3583,-6.3611,-6.3618,-6.3626,-6.3635,-6.3428,-6.3623,-6.3622,-6.3622,-6.3621,-6.3621,0,-6.3281,-6.3296,-6.3348,-6.3395,-6.3438,-6.3403,-6.3436,-6.3474,-6.3533,-6.3559,-6.3601,-6.3667,-6.3718,-6.3722,-6.3769,-6.3808,-6.3793,-6.3821,-6.3818,-6.3821,-6.3662,-6.364,-6.3833,-6.3833,-6.3833,-6.3833,-6.3833,-6.3833,-6.3391,-6.348,-6.3477,-6.3575,-6.3588,-6.3655,-6.3677,-6.3704,-6.3724,-6.3801,-6.3843,-6.3847,-6.3863,-6.3911,-6.3955,-6.3955,-6.3974,-6.4009,-6.4003,-6.3854,-6.3833,-6.3812,-6.3792,-6.4013,-6.4014,-6.4158,-6.4159,-6.416]}]]